PBO Station Position Time Series. Reference Frame : NAM14
Format Version,1.1.0
4-character ID,P392
Station name,WrightsPt_OR2007
Begin Date, 2007-07-12
End Date, 2019-10-07
Release Date, 2019-10-08
Reference position, 43.4467587866 North Latitude, -119.0010011606 East Longitude, 1315.52957 meters elevation,
Date, North (mm), East (mm), Vertical (mm), North Std. Deviation (mm), East Std. Deviation (mm),              Vertical Std. Deviation (mm), Quality,
2007-07-12,0.00, 0.00, 0.00, 2.11, 1.57, 7.03, repro,
2007-07-13,1.01, -0.74, 0.61, 2.13, 1.62, 7.22, repro,
2007-07-14,-1.14, -1.41, 3.96, 2.11, 1.56, 7.01, repro,
2007-07-15,-0.14, 0.12, -2.16, 2.11, 1.58, 7.07, repro,
2007-07-16,-0.42, -0.96, 5.99, 2.11, 1.57, 7.00, repro,
2007-07-17,-0.74, -1.49, 6.15, 2.11, 1.56, 7.02, repro,
2007-07-18,0.36, -1.66, 2.97, 2.10, 1.56, 7.01, repro,
2007-07-19,1.00, -0.32, 1.16, 2.10, 1.56, 6.99, repro,
2007-07-20,0.01, -0.77, 6.77, 2.15, 1.62, 7.22, repro,
2007-07-21,0.10, -2.07, 9.25, 2.15, 1.62, 7.24, repro,
2007-07-22,0.52, -1.92, 8.14, 2.13, 1.61, 7.16, repro,
2007-07-23,-1.12, -1.47, 7.80, 2.14, 1.61, 7.16, repro,
2007-07-24,2.10, -2.29, 4.03, 2.17, 1.62, 7.29, repro,
2007-07-25,-0.42, -0.93, 8.92, 2.16, 1.63, 7.27, repro,
2007-07-26,0.94, -1.72, 1.70, 2.12, 1.57, 7.09, repro,
2007-07-27,-0.28, -2.28, 3.97, 2.14, 1.62, 7.21, repro,
2007-07-28,0.21, -1.51, 0.90, 2.12, 1.61, 7.15, repro,
2007-07-29,0.85, -2.52, 9.69, 2.13, 1.62, 7.17, repro,
2007-07-30,-0.71, 0.41, 8.99, 2.10, 1.56, 7.01, repro,
2007-07-31,-0.33, -1.45, 4.38, 2.10, 1.57, 7.05, repro,
2007-08-01,-0.73, -1.63, 9.15, 2.14, 1.62, 7.24, repro,
2007-08-02,-0.17, -2.31, 10.44, 2.10, 1.55, 7.01, repro,
2007-08-03,0.82, -1.69, 5.66, 2.11, 1.57, 7.05, repro,
2007-08-04,0.23, -1.14, 11.08, 2.12, 1.56, 7.06, repro,
2007-08-05,-0.26, -1.40, 12.79, 2.10, 1.56, 6.97, repro,
2007-08-06,0.90, -1.74, 17.43, 2.17, 1.67, 7.38, repro,
2007-08-07,-0.47, -0.42, 9.83, 2.14, 1.60, 7.19, repro,
2007-08-08,0.21, -1.70, 7.60, 2.09, 1.55, 6.98, repro,
2007-08-09,-0.53, -1.02, 6.78, 2.09, 1.55, 6.93, repro,
2007-08-10,0.06, -0.11, 9.08, 2.16, 1.57, 7.15, repro,
2007-08-11,-0.62, -1.91, 11.20, 2.09, 1.55, 6.94, repro,
2007-08-12,-0.09, -1.56, 10.02, 2.10, 1.55, 6.98, repro,
2007-08-13,1.15, -2.20, 5.35, 2.09, 1.55, 6.98, repro,
2007-08-14,-0.07, -1.38, 4.22, 2.23, 1.67, 7.45, repro,
2007-08-15,-0.46, -0.76, 8.90, 2.23, 1.66, 7.36, repro,
2007-08-16,-0.61, -1.64, 8.88, 2.23, 1.68, 7.51, repro,
2007-08-17,0.41, -2.12, 5.44, 2.23, 1.67, 7.45, repro,
2007-08-18,0.61, -1.46, 11.25, 2.24, 1.67, 7.61, repro,
2007-08-19,-0.50, -1.19, 17.74, 2.24, 1.66, 7.57, repro,
2007-08-20,-0.11, -0.67, 5.26, 2.20, 1.61, 7.27, repro,
2007-08-21,-2.03, -2.32, 9.47, 2.18, 1.60, 7.21, repro,
2007-08-22,0.10, -2.76, 7.67, 2.19, 1.60, 7.22, repro,
2007-08-23,0.66, -2.03, 12.39, 2.15, 1.56, 7.09, repro,
2007-08-24,1.02, -2.02, 9.71, 2.27, 1.65, 7.46, repro,
2007-08-25,1.18, -1.39, -1.00, 2.20, 1.64, 7.34, repro,
2007-08-26,-0.66, -1.85, 9.19, 2.25, 1.68, 7.49, repro,
2007-08-27,-0.56, -2.47, 4.81, 2.25, 1.68, 7.47, repro,
2007-08-28,0.03, -1.91, 2.80, 2.20, 1.63, 7.37, repro,
2007-08-29,1.21, -2.06, 3.31, 2.20, 1.64, 7.35, repro,
2007-08-30,-0.57, -0.68, 13.06, 2.21, 1.65, 7.46, repro,
2007-08-31,-1.14, -3.41, 6.75, 2.36, 1.79, 7.97, repro,
2007-09-01,-1.90, -1.68, 6.87, 2.26, 1.69, 7.48, repro,
2007-09-02,0.39, -2.47, 10.64, 2.21, 1.63, 7.29, repro,
2007-09-03,-0.74, -2.25, 9.66, 2.20, 1.64, 7.34, repro,
2007-09-04,-1.10, -1.55, 2.91, 2.28, 1.75, 7.87, repro,
2007-09-05,0.82, -3.15, 13.07, 2.22, 1.64, 7.38, repro,
2007-09-06,-0.14, -2.79, 10.47, 2.20, 1.62, 7.25, repro,
2007-09-07,-0.47, -2.99, 11.11, 2.20, 1.62, 7.25, repro,
2007-09-08,0.11, -2.31, 5.57, 2.28, 1.73, 7.70, repro,
2007-09-09,0.54, -1.97, 6.94, 2.27, 1.73, 7.71, repro,
2007-09-10,-0.02, -1.28, 3.65, 2.24, 1.68, 7.51, repro,
2007-09-11,-0.04, -2.59, 6.61, 2.21, 1.64, 7.32, repro,
2007-09-12,0.08, -2.78, 5.29, 2.21, 1.62, 7.28, repro,
2007-09-13,0.66, -2.57, 6.53, 2.25, 1.68, 7.50, repro,
2007-09-14,0.73, -3.13, 9.45, 2.24, 1.69, 7.54, repro,
2007-09-15,-0.00, -2.55, 10.88, 2.28, 1.66, 7.59, repro,
2007-09-16,0.68, -3.13, 10.68, 2.22, 1.64, 7.29, repro,
2007-09-17,-0.97, -3.72, 8.21, 2.31, 1.71, 7.66, repro,
2007-09-18,-0.77, -2.42, 9.03, 2.16, 1.63, 7.24, repro,
2007-09-19,0.35, -1.94, 9.03, 2.12, 1.57, 7.04, repro,
2007-09-20,-0.03, -2.85, 9.14, 2.13, 1.57, 7.06, repro,
2007-09-21,0.35, -1.89, 14.95, 2.20, 1.62, 7.32, repro,
2007-09-22,-0.26, -3.35, 11.90, 2.21, 1.60, 7.23, repro,
2007-09-23,-0.25, -2.35, 7.73, 2.26, 1.66, 7.40, repro,
2007-09-24,-1.04, -0.90, 4.57, 2.27, 1.63, 7.42, repro,
2007-09-25,-0.28, -1.33, 1.90, 2.21, 1.61, 7.38, repro,
2007-09-26,-0.49, -2.32, 12.38, 2.25, 1.59, 7.26, repro,
2007-09-27,-0.73, -1.40, 9.65, 2.20, 1.60, 7.29, repro,
2007-09-28,-0.89, -3.17, 18.66, 2.23, 1.69, 7.42, repro,
2007-09-29,-0.25, -2.41, 6.91, 2.20, 1.65, 7.33, repro,
2007-09-30,-0.64, -2.09, 7.31, 2.22, 1.67, 7.43, repro,
2007-10-01,-0.05, -2.07, 8.99, 2.21, 1.67, 7.40, repro,
2007-10-02,-0.30, -1.51, 9.81, 2.26, 1.71, 7.64, repro,
2007-10-03,0.54, -2.09, 12.77, 2.18, 1.63, 7.34, repro,
2007-10-04,0.97, -1.46, 9.13, 2.26, 1.64, 7.53, repro,
2007-10-05,0.98, -1.85, 12.87, 2.26, 1.71, 7.68, repro,
2007-10-06,0.78, -1.51, 8.16, 2.21, 1.66, 7.36, repro,
2007-10-07,0.50, -1.25, 5.09, 2.27, 1.69, 7.56, repro,
2007-10-08,-0.76, -1.38, 4.96, 2.47, 1.77, 8.14, repro,
2007-10-09,-0.55, -1.14, 8.21, 2.43, 1.87, 8.28, repro,
2007-10-10,-0.16, -1.39, 3.96, 2.38, 1.70, 7.78, repro,
2007-10-11,0.16, -1.84, 3.52, 2.21, 1.66, 7.38, repro,
2007-10-12,-0.05, -1.41, 10.61, 2.25, 1.70, 7.55, repro,
2007-10-13,-0.50, -2.06, 9.50, 2.12, 1.60, 7.09, repro,
2007-10-14,-0.62, -1.72, 6.98, 2.13, 1.59, 7.08, repro,
2007-10-15,-1.18, -0.88, 12.99, 2.14, 1.60, 7.19, repro,
2007-10-16,-0.58, -1.82, 11.73, 2.16, 1.61, 7.22, repro,
2007-10-17,-0.13, -1.10, 11.52, 2.13, 1.59, 7.12, repro,
2007-10-18,1.00, -0.50, 13.68, 2.13, 1.61, 7.16, repro,
2007-10-19,-1.46, -2.52, 10.90, 2.14, 1.60, 7.13, repro,
2007-10-20,-1.17, -1.37, 14.95, 2.16, 1.63, 7.29, repro,
2007-10-21,-0.24, -1.57, 3.02, 2.16, 1.60, 7.20, repro,
2007-10-22,-0.60, -0.93, -3.04, 2.14, 1.60, 7.19, repro,
2007-10-23,-0.86, -0.13, 1.59, 2.20, 1.66, 7.34, repro,
2007-10-24,-0.62, -0.87, 4.04, 2.22, 1.69, 7.48, repro,
2007-10-25,-0.83, -1.19, 3.24, 2.15, 1.60, 7.17, repro,
2007-10-26,-0.63, -0.87, 2.79, 2.17, 1.64, 7.29, repro,
2007-10-27,-0.19, -0.85, 0.21, 2.14, 1.59, 7.11, repro,
2007-10-28,-0.52, -0.73, -0.18, 2.14, 1.60, 7.18, repro,
2007-10-29,-0.31, -0.83, 6.52, 2.13, 1.60, 7.16, repro,
2007-10-30,-0.99, -0.99, -0.01, 2.12, 1.59, 7.10, repro,
2007-10-31,-1.06, -0.61, 1.30, 2.15, 1.60, 7.16, repro,
2007-11-01,-0.40, -0.89, 3.73, 2.12, 1.57, 6.98, repro,
2007-11-02,-0.15, -1.13, -0.54, 2.12, 1.58, 7.03, repro,
2007-11-03,-0.94, -1.73, -1.87, 2.13, 1.59, 7.10, repro,
2007-11-04,-0.05, -1.58, 3.96, 2.08, 1.56, 6.87, repro,
2007-11-05,-0.51, -1.26, 0.35, 2.10, 1.57, 6.94, repro,
2007-11-06,-0.88, -1.26, -3.56, 2.18, 1.65, 7.35, repro,
2007-11-07,-0.30, -1.30, -3.28, 2.11, 1.58, 6.99, repro,
2007-11-08,-0.45, -1.52, 2.59, 2.15, 1.62, 7.13, repro,
2007-11-09,-1.21, -1.84, 5.23, 2.14, 1.60, 7.06, repro,
2007-11-10,0.05, -2.78, 6.83, 2.10, 1.56, 6.92, repro,
2007-11-11,-0.94, -1.78, 3.72, 2.10, 1.56, 6.91, repro,
2007-11-12,-1.25, -1.58, 4.15, 2.11, 1.56, 6.93, repro,
2007-11-13,-0.14, -2.69, -2.19, 2.11, 1.58, 7.02, repro,
2007-11-14,-0.36, -1.08, 1.26, 2.13, 1.59, 7.07, repro,
2007-11-15,0.65, -2.17, 4.24, 2.15, 1.59, 7.12, repro,
2007-11-16,-0.10, -1.61, 6.63, 2.13, 1.57, 6.97, repro,
2007-11-17,-0.13, -1.95, 1.85, 2.11, 1.56, 6.92, repro,
2007-11-18,-1.46, -2.57, 3.55, 2.09, 1.57, 6.91, repro,
2007-11-19,-1.06, -1.69, 0.56, 2.10, 1.58, 6.98, repro,
2007-11-20,0.11, -1.69, -1.14, 2.17, 1.67, 7.26, repro,
2007-11-21,-0.16, -1.70, -1.83, 2.18, 1.66, 7.28, repro,
2007-11-22,0.41, -1.78, -6.46, 2.16, 1.62, 7.04, repro,
2007-11-23,0.79, -1.44, 0.60, 2.21, 1.70, 7.39, repro,
2007-11-24,0.32, -1.72, 1.21, 2.17, 1.65, 7.13, repro,
2007-11-25,-0.46, -1.59, 3.96, 2.20, 1.68, 7.31, repro,
2007-11-26,-1.36, -1.46, -7.41, 2.31, 1.73, 7.69, repro,
2007-11-27,-0.27, -1.07, 1.35, 2.19, 1.68, 7.27, repro,
2007-11-28,-0.01, -2.06, -7.75, 2.18, 1.66, 7.17, repro,
2007-11-29,0.11, -2.10, -4.76, 2.19, 1.65, 7.30, repro,
2007-11-30,-0.48, -1.68, 0.15, 2.21, 1.70, 7.31, repro,
2007-12-01,-0.69, -1.56, 5.16, 2.27, 1.77, 7.72, repro,
2007-12-02,-1.08, -0.97, -0.72, 2.26, 1.75, 7.74, repro,
2007-12-03,-2.03, -0.58, -1.88, 2.28, 1.71, 7.68, repro,
2007-12-04,0.82, -3.57, -2.87, 2.32, 1.82, 8.03, repro,
2007-12-05,-0.20, -1.84, 4.45, 2.30, 1.80, 7.96, repro,
2007-12-06,-0.21, -0.74, 2.96, 2.35, 1.82, 8.11, repro,
2007-12-07,1.42, -1.99, 0.08, 2.45, 1.96, 8.42, repro,
2007-12-08,0.06, -1.87, 5.73, 2.35, 1.78, 7.77, repro,
2007-12-09,0.75, -2.12, 0.77, 2.63, 2.39, 9.66, repro,
2007-12-10,-0.07, -2.06, -2.65, 2.32, 1.79, 7.74, repro,
2007-12-11,-0.22, -1.42, -0.72, 2.40, 1.85, 8.12, repro,
2007-12-12,-0.19, -2.36, -6.63, 2.32, 1.74, 7.70, repro,
2007-12-13,0.73, -1.71, -4.27, 2.32, 1.79, 7.73, repro,
2007-12-14,-0.53, -1.62, -0.76, 2.17, 1.60, 7.12, repro,
2007-12-15,-1.54, -1.41, 7.52, 2.15, 1.59, 7.03, repro,
2007-12-16,-0.33, -2.10, -0.45, 2.23, 1.64, 7.24, repro,
2007-12-17,-1.21, -1.97, 6.79, 2.23, 1.66, 7.31, repro,
2007-12-18,0.66, -1.25, 5.31, 2.19, 1.64, 7.26, repro,
2007-12-19,1.33, -0.10, 9.09, 2.26, 1.72, 7.75, repro,
2007-12-20,-2.16, -2.90, 9.60, 2.18, 1.63, 7.19, repro,
2007-12-21,-1.00, -1.94, 7.84, 2.38, 1.82, 8.14, repro,
2007-12-22,-0.93, -3.03, -0.49, 2.29, 1.71, 7.71, repro,
2007-12-23,-0.76, -2.51, -1.21, 2.23, 1.67, 7.39, repro,
2007-12-24,-0.97, -2.20, -1.00, 2.18, 1.62, 7.20, repro,
2007-12-25,-0.40, -2.12, -2.80, 2.21, 1.67, 7.27, repro,
2007-12-26,-0.86, -2.00, 5.60, 2.17, 1.61, 7.14, repro,
2007-12-27,-1.44, -1.76, 6.68, 2.23, 1.65, 7.37, repro,
2007-12-28,-1.27, -1.19, 6.91, 2.26, 1.66, 7.50, repro,
2007-12-29,-0.62, -2.06, 3.36, 2.19, 1.60, 7.19, repro,
2007-12-30,-1.95, -1.08, 3.74, 2.22, 1.64, 7.31, repro,
2007-12-31,-1.12, -1.72, -3.40, 2.15, 1.56, 7.00, repro,
2008-01-01,-1.29, -1.77, -7.63, 2.17, 1.58, 7.08, repro,
2008-01-02,-1.42, -1.72, -3.47, 2.19, 1.59, 7.20, repro,
2008-01-03,-2.61, -1.07, 6.97, 2.15, 1.55, 7.06, repro,
2008-01-04,-1.05, -0.76, 7.55, 2.12, 1.54, 6.91, repro,
2008-01-05,-3.25, -1.71, 10.74, 2.12, 1.54, 6.96, repro,
2008-01-06,-1.37, -1.74, 9.56, 2.12, 1.54, 6.92, repro,
2008-01-07,-2.62, -2.34, 7.97, 2.14, 1.55, 6.98, repro,
2008-01-08,-2.53, -1.81, 4.87, 2.21, 1.57, 7.18, repro,
2008-01-09,-2.33, -2.41, 2.35, 2.18, 1.56, 7.12, repro,
2008-01-10,-2.07, -1.64, 6.86, 2.11, 1.55, 6.91, repro,
2008-01-11,-2.24, -1.53, 4.94, 2.11, 1.55, 6.91, repro,
2008-01-12,-1.71, -1.55, -0.23, 2.13, 1.55, 6.95, repro,
2008-01-13,-1.50, -1.54, -4.75, 2.15, 1.56, 7.03, repro,
2008-01-14,-2.63, -1.64, -0.33, 2.14, 1.58, 7.06, repro,
2008-01-15,-1.78, -2.29, 0.57, 2.12, 1.56, 6.99, repro,
2008-01-16,-2.07, -1.93, -2.02, 2.15, 1.57, 7.06, repro,
2008-01-17,-2.13, -1.30, -1.18, 2.16, 1.56, 7.03, repro,
2008-01-18,-1.57, -1.95, -2.07, 2.15, 1.59, 7.12, repro,
2008-01-19,-1.45, -1.04, -3.81, 2.14, 1.57, 7.05, repro,
2008-01-20,-1.65, -1.21, 1.01, 2.12, 1.57, 7.00, repro,
2008-01-21,-1.79, -1.28, 2.16, 2.11, 1.56, 6.95, repro,
2008-01-22,-2.30, -1.26, -2.71, 2.11, 1.56, 6.92, repro,
2008-01-23,-1.93, -0.60, -1.43, 2.11, 1.54, 6.89, repro,
2008-01-24,-2.38, -0.67, 3.53, 2.14, 1.57, 7.06, repro,
2008-01-25,-2.23, -1.30, 1.62, 2.13, 1.58, 7.07, repro,
2008-01-26,-2.94, -1.30, 3.18, 2.11, 1.57, 6.98, repro,
2008-01-27,-4.38, -1.47, 6.13, 2.11, 1.55, 6.96, repro,
2008-01-28,-2.94, -2.01, 15.29, 2.11, 1.54, 6.90, repro,
2008-01-29,-2.87, -1.08, 9.80, 2.24, 1.67, 7.38, repro,
2008-01-30,-2.34, -1.42, 6.83, 2.23, 1.64, 7.33, repro,
2008-01-31,-2.29, -2.14, 1.93, 2.13, 1.57, 7.05, repro,
2008-02-01,-2.54, -0.78, 0.65, 2.11, 1.55, 6.96, repro,
2008-02-02,-2.10, -1.25, 1.18, 2.09, 1.54, 6.85, repro,
2008-02-03,-2.49, -0.71, 6.44, 2.12, 1.55, 6.96, repro,
2008-02-04,-1.68, -1.52, 1.61, 2.12, 1.56, 7.01, repro,
2008-02-05,-1.90, -1.06, 0.41, 2.16, 1.63, 7.19, repro,
2008-02-06,-2.73, -1.48, 0.00, 2.15, 1.62, 7.15, repro,
2008-02-07,-2.69, -0.91, 4.37, 2.14, 1.58, 7.08, repro,
2008-02-08,-3.51, -1.67, -0.50, 2.11, 1.55, 6.95, repro,
2008-02-09,-2.34, -0.54, -0.79, 2.12, 1.56, 6.99, repro,
2008-02-10,-2.71, -0.30, 0.64, 2.12, 1.56, 7.01, repro,
2008-02-11,-2.73, -1.40, -0.51, 2.12, 1.56, 7.02, repro,
2008-02-12,-2.56, -0.55, -2.22, 2.11, 1.55, 6.95, repro,
2008-02-13,-2.46, -1.99, 1.85, 2.12, 1.56, 6.98, repro,
2008-02-14,-1.44, -1.07, -1.00, 2.13, 1.55, 6.97, repro,
2008-02-15,-2.54, -0.56, -2.87, 2.14, 1.60, 7.10, repro,
2008-02-16,-3.19, -0.67, 0.18, 2.11, 1.56, 6.97, repro,
2008-02-17,-2.71, -0.54, -0.81, 2.12, 1.57, 7.03, repro,
2008-02-18,-2.66, -0.50, -1.99, 2.12, 1.56, 6.96, repro,
2008-02-19,-2.99, -1.15, -0.74, 2.13, 1.57, 7.01, repro,
2008-02-20,-2.36, -0.94, -1.62, 2.12, 1.56, 6.97, repro,
2008-02-21,-3.31, -1.14, 5.64, 2.11, 1.56, 6.94, repro,
2008-02-22,-3.18, -0.96, 5.27, 2.12, 1.57, 7.00, repro,
2008-02-23,-3.65, -0.44, 4.56, 2.11, 1.55, 6.91, repro,
2008-02-24,-2.03, -0.75, 3.40, 2.13, 1.57, 7.03, repro,
2008-02-25,-3.71, -0.98, 1.63, 2.12, 1.56, 6.96, repro,
2008-02-26,-2.80, -1.16, -12.57, 2.14, 1.56, 7.02, repro,
2008-02-27,-2.60, -1.21, -10.86, 2.15, 1.59, 7.08, repro,
2008-02-28,-2.89, -1.31, -4.72, 2.12, 1.57, 7.00, repro,
2008-02-29,-2.42, -0.94, -2.81, 2.14, 1.56, 7.02, repro,
2008-03-01,-4.30, -1.39, 0.88, 2.17, 1.62, 7.27, repro,
2008-03-02,-3.41, -0.53, -6.05, 2.12, 1.56, 6.97, repro,
2008-03-03,-2.98, -0.60, -9.37, 2.13, 1.55, 6.98, repro,
2008-03-04,-2.28, -0.55, -9.33, 2.11, 1.55, 6.94, repro,
2008-03-05,-2.22, -1.21, -6.99, 2.19, 1.67, 7.39, repro,
2008-03-06,-3.22, -0.84, -4.57, 2.13, 1.57, 7.01, repro,
2008-03-07,-3.46, -0.68, -5.73, 2.13, 1.56, 7.00, repro,
2008-03-08,-4.70, -0.50, -2.63, 2.17, 1.60, 7.21, repro,
2008-03-09,-2.67, -1.13, -5.47, 2.15, 1.59, 7.14, repro,
2008-03-10,-2.78, -0.27, -5.65, 2.11, 1.56, 6.97, repro,
2008-03-11,-2.60, -1.62, -0.56, 2.11, 1.56, 6.97, repro,
2008-03-12,-3.41, -1.57, -0.06, 2.17, 1.61, 7.27, repro,
2008-03-13,3.72, -3.66, 19.29, 17.95, 14.89, 50.27, repro,
2008-03-18,-26.30, 27.70, 18.76, 38.03, 57.86, 138.52, repro,
2008-03-20,-0.71, -1.09, 2.82, 4.01, 3.03, 13.54, repro,
2008-03-21,-1.57, 0.29, -5.97, 3.33, 2.47, 11.24, repro,
2008-03-22,-1.51, -0.84, -12.83, 2.21, 1.64, 7.39, repro,
2008-03-23,-3.75, -1.32, -7.13, 2.17, 1.60, 7.17, repro,
2008-03-24,-2.76, -0.67, -3.99, 2.15, 1.59, 7.13, repro,
2008-03-25,-3.33, -0.97, -2.12, 2.20, 1.62, 7.23, repro,
2008-03-26,-2.42, -0.42, -4.20, 2.17, 1.63, 7.22, repro,
2008-03-27,-1.94, -1.71, -4.60, 2.19, 1.62, 7.26, repro,
2008-03-28,-3.04, -0.88, -6.58, 2.18, 1.61, 7.18, repro,
2008-03-29,-2.94, 0.13, -0.97, 2.15, 1.57, 7.06, repro,
2008-03-30,-2.70, -1.26, -1.75, 2.14, 1.55, 7.02, repro,
2008-03-31,-1.95, -1.01, -5.59, 2.13, 1.55, 7.00, repro,
2008-04-01,-1.77, -0.31, -3.87, 2.14, 1.56, 7.04, repro,
2008-04-02,-1.85, -1.04, -3.24, 2.22, 1.58, 7.21, repro,
2008-04-03,-2.14, -0.90, -6.97, 2.17, 1.59, 7.18, repro,
2008-04-04,-3.06, -0.91, -5.42, 2.13, 1.55, 6.98, repro,
2008-04-05,-2.68, -1.04, 4.53, 2.13, 1.54, 7.00, repro,
2008-04-06,-2.74, -0.66, 2.09, 2.13, 1.56, 7.04, repro,
2008-04-07,-2.25, -0.60, -2.76, 2.15, 1.56, 7.09, repro,
2008-04-08,-3.03, -1.60, -3.82, 2.16, 1.57, 7.16, repro,
2008-04-09,-2.97, -1.38, 1.58, 2.16, 1.57, 7.15, repro,
2008-04-10,-2.44, -1.89, -3.92, 2.12, 1.54, 6.95, repro,
2008-04-11,-2.48, -1.56, -8.62, 2.22, 1.60, 7.29, repro,
2008-04-12,-2.36, -0.67, -10.26, 2.15, 1.56, 7.11, repro,
2008-04-13,-1.85, -0.77, -4.07, 2.16, 1.57, 7.14, repro,
2008-04-14,-3.82, -1.81, -4.53, 2.16, 1.57, 7.18, repro,
2008-04-15,-3.33, -2.23, 3.93, 2.17, 1.62, 7.20, repro,
2008-04-16,-3.20, -1.34, -2.85, 2.16, 1.60, 7.15, repro,
2008-04-17,-3.13, -1.24, -2.64, 2.15, 1.56, 7.11, repro,
2008-04-18,-2.25, -1.57, -1.15, 2.16, 1.56, 7.14, repro,
2008-04-19,-2.12, -0.71, -2.12, 2.17, 1.56, 7.15, repro,
2008-04-20,-3.03, -1.03, -2.10, 2.15, 1.55, 7.08, repro,
2008-04-21,-3.23, -1.04, -1.23, 2.15, 1.55, 7.10, repro,
2008-04-22,-2.85, -0.99, -3.13, 2.15, 1.55, 7.10, repro,
2008-04-23,-2.42, -1.33, 0.31, 2.23, 1.62, 7.40, repro,
2008-04-24,-2.56, -1.21, -2.75, 2.18, 1.58, 7.23, repro,
2008-04-25,-2.99, -0.76, -4.34, 2.17, 1.56, 7.15, repro,
2008-04-26,-2.36, -1.64, -10.87, 2.26, 1.63, 7.37, repro,
2008-04-27,-2.68, -1.27, -6.09, 2.26, 1.58, 7.28, repro,
2008-04-28,-4.04, -0.88, -5.56, 2.25, 1.58, 7.22, repro,
2008-04-29,-1.79, -0.56, -0.10, 2.31, 1.60, 7.34, repro,
2008-04-30,-2.26, -1.33, 0.84, 2.22, 1.60, 7.31, repro,
2008-05-01,-2.16, -1.09, -4.73, 2.21, 1.60, 7.23, repro,
2008-05-02,-2.80, -0.39, -5.29, 2.21, 1.61, 7.25, repro,
2008-05-03,-3.17, -0.86, -1.47, 2.16, 1.54, 7.04, repro,
2008-05-04,-3.29, -1.37, -0.31, 2.15, 1.54, 6.98, repro,
2008-05-05,-2.39, -1.09, -3.27, 2.21, 1.58, 7.17, repro,
2008-05-06,-2.70, -1.76, -3.26, 2.20, 1.59, 7.22, repro,
2008-05-07,-2.24, -0.60, -2.09, 2.23, 1.61, 7.31, repro,
2008-05-08,-1.81, -1.94, -1.62, 2.21, 1.62, 7.33, repro,
2008-05-09,-2.95, -1.29, 0.06, 2.18, 1.56, 7.13, repro,
2008-05-10,-3.03, -0.71, -0.14, 2.16, 1.54, 7.00, repro,
2008-05-11,-2.60, -2.58, -1.43, 2.20, 1.57, 7.19, repro,
2008-05-12,-3.03, -2.01, 2.43, 2.21, 1.59, 7.22, repro,
2008-05-13,-3.26, -1.37, 1.64, 2.18, 1.55, 7.06, repro,
2008-05-14,-3.09, -0.81, -3.81, 2.17, 1.54, 7.05, repro,
2008-05-15,-3.47, -0.60, -8.87, 2.18, 1.54, 7.05, repro,
2008-05-16,-2.56, -0.50, -5.43, 2.17, 1.53, 6.97, repro,
2008-05-17,-2.47, -1.86, -5.67, 2.20, 1.59, 7.25, repro,
2008-05-18,-2.32, -0.67, 0.43, 2.20, 1.58, 7.15, repro,
2008-05-19,-2.56, -1.43, -6.02, 2.15, 1.54, 7.06, repro,
2008-05-20,-3.06, -1.57, -0.12, 2.16, 1.54, 7.05, repro,
2008-05-21,-1.37, -2.81, 3.43, 2.20, 1.61, 7.25, repro,
2008-05-22,-3.36, -0.89, 3.49, 2.20, 1.59, 7.30, repro,
2008-05-23,-3.12, -1.78, 6.69, 2.18, 1.60, 7.28, repro,
2008-05-24,-4.51, -1.25, 1.40, 2.15, 1.55, 7.07, repro,
2008-05-25,-4.38, -1.41, 3.13, 2.16, 1.55, 7.12, repro,
2008-05-26,-3.97, -1.22, 5.12, 2.16, 1.57, 7.14, repro,
2008-05-27,-2.67, -0.17, 0.74, 2.16, 1.55, 7.08, repro,
2008-05-28,-1.72, -1.12, 0.13, 2.16, 1.56, 7.13, repro,
2008-05-29,-2.46, -1.46, 0.88, 2.19, 1.59, 7.17, repro,
2008-05-30,-2.02, -0.72, -3.85, 2.16, 1.54, 7.07, repro,
2008-05-31,-1.26, -0.43, -1.79, 2.16, 1.54, 7.06, repro,
2008-06-01,-3.46, -0.06, 1.81, 2.16, 1.55, 7.07, repro,
2008-06-02,-1.78, -0.55, -5.71, 2.16, 1.55, 7.10, repro,
2008-06-03,-3.15, -0.56, -0.93, 2.22, 1.61, 7.35, repro,
2008-06-04,-2.20, -0.50, 1.59, 2.15, 1.55, 7.07, repro,
2008-06-05,-2.72, -0.11, -0.75, 2.16, 1.54, 7.06, repro,
2008-06-06,-2.60, -0.16, 3.27, 2.19, 1.59, 7.23, repro,
2008-06-07,-3.68, -1.49, 2.98, 2.22, 1.63, 7.37, repro,
2008-06-08,-2.72, -0.75, -2.12, 2.21, 1.60, 7.25, repro,
2008-06-09,-3.51, -0.13, 1.70, 2.20, 1.61, 7.25, repro,
2008-06-10,-2.41, 0.28, -0.42, 2.16, 1.55, 7.08, repro,
2008-06-11,-1.58, -1.45, -2.33, 2.16, 1.54, 7.07, repro,
2008-06-12,-2.42, -0.11, 1.29, 2.18, 1.58, 7.23, repro,
2008-06-13,-1.92, -0.65, -1.89, 2.17, 1.57, 7.17, repro,
2008-06-14,-2.11, -0.31, -3.01, 2.22, 1.59, 7.31, repro,
2008-06-15,-1.53, -1.08, 0.60, 2.21, 1.58, 7.23, repro,
2008-06-16,-2.56, -0.56, -3.88, 2.16, 1.55, 7.09, repro,
2008-06-17,-2.17, -0.52, 0.43, 2.16, 1.54, 7.09, repro,
2008-06-18,-2.14, -0.13, -0.14, 2.16, 1.55, 7.10, repro,
2008-06-19,-1.44, -1.54, -5.49, 2.18, 1.62, 7.36, repro,
2008-06-20,-2.50, -0.41, -5.44, 2.14, 1.55, 7.05, repro,
2008-06-21,-1.67, 0.29, -8.91, 2.17, 1.54, 7.09, repro,
2008-06-22,-2.76, -0.57, -6.13, 2.16, 1.55, 7.08, repro,
2008-06-23,-1.74, -0.78, 0.27, 2.17, 1.55, 7.11, repro,
2008-06-24,-2.65, 0.10, 1.27, 2.15, 1.55, 7.05, repro,
2008-06-25,-3.05, -0.29, 1.74, 2.17, 1.56, 7.11, repro,
2008-06-26,-1.82, -1.69, 1.62, 2.18, 1.59, 7.15, repro,
2008-06-27,-2.66, -1.57, 0.25, 2.22, 1.60, 7.29, repro,
2008-06-28,0.65, 0.57, -6.03, 2.20, 1.61, 7.30, repro,
2008-06-29,-1.78, -0.89, -3.44, 2.16, 1.56, 7.07, repro,
2008-06-30,-1.88, -0.56, -1.92, 2.15, 1.57, 7.10, repro,
2008-07-01,-1.09, -2.32, -7.48, 2.15, 1.57, 7.07, repro,
2008-07-02,-2.13, -1.33, -4.15, 2.17, 1.55, 7.09, repro,
2008-07-03,-2.93, -0.66, 1.38, 2.21, 1.61, 7.30, repro,
2008-07-04,-2.06, -1.13, 6.70, 2.18, 1.55, 7.15, repro,
2008-07-05,-1.84, -0.70, 9.25, 2.16, 1.57, 7.15, repro,
2008-07-06,-2.12, -1.25, 3.55, 2.14, 1.55, 7.04, repro,
2008-07-07,-1.60, -1.35, 2.69, 2.19, 1.61, 7.24, repro,
2008-07-08,-2.35, -1.04, -0.34, 2.17, 1.54, 7.09, repro,
2008-07-09,-1.38, -0.93, 5.93, 2.18, 1.55, 7.11, repro,
2008-07-10,-1.72, -0.81, 2.22, 2.20, 1.58, 7.17, repro,
2008-07-11,-1.56, -1.43, 2.83, 2.22, 1.61, 7.29, repro,
2008-07-12,-1.26, -1.10, -0.13, 2.16, 1.55, 7.07, repro,
2008-07-13,-1.73, -1.24, 0.42, 2.23, 1.62, 7.38, repro,
2008-07-14,-2.30, -0.16, 3.55, 2.20, 1.56, 7.21, repro,
2008-07-15,-2.73, -2.09, 1.02, 2.29, 1.72, 7.66, repro,
2008-07-16,-2.55, -0.96, 2.31, 2.15, 1.56, 7.10, repro,
2008-07-17,-0.86, -1.31, 6.29, 2.14, 1.55, 7.02, repro,
2008-07-18,-1.47, -1.29, 6.52, 2.29, 1.61, 7.44, repro,
2008-07-19,-2.26, -0.72, 4.90, 2.28, 1.63, 7.49, repro,
2008-07-20,-2.13, -1.20, 6.66, 2.16, 1.54, 7.03, repro,
2008-07-21,-3.23, -0.13, 11.95, 2.16, 1.55, 7.04, repro,
2008-07-22,-2.72, -1.78, 9.91, 2.16, 1.57, 7.11, repro,
2008-07-23,-1.69, -1.01, 7.03, 2.19, 1.56, 7.16, repro,
2008-07-24,-1.63, -1.16, 1.72, 2.19, 1.56, 7.15, repro,
2008-07-25,-2.01, -1.45, 7.39, 2.21, 1.61, 7.30, repro,
2008-07-26,-2.44, -1.55, 5.84, 2.15, 1.54, 7.01, repro,
2008-07-27,-1.10, -1.14, 11.92, 2.14, 1.54, 7.02, repro,
2008-07-28,-2.84, -1.10, 7.96, 2.23, 1.59, 7.22, repro,
2008-07-29,-3.25, -1.00, 13.36, 2.23, 1.59, 7.37, repro,
2008-07-30,-2.38, -1.44, 10.19, 2.27, 1.63, 7.53, repro,
2008-07-31,-3.18, -1.30, 9.24, 2.16, 1.55, 7.12, repro,
2008-08-01,-2.47, -1.94, 18.71, 2.13, 1.53, 6.95, repro,
2008-08-02,-1.94, -1.67, 19.15, 2.15, 1.55, 7.05, repro,
2008-08-03,-2.54, -1.85, 7.89, 2.19, 1.59, 7.23, repro,
2008-08-04,-2.68, -1.05, 8.89, 2.16, 1.55, 7.11, repro,
2008-08-05,-2.12, -1.46, 4.98, 2.16, 1.55, 7.11, repro,
2008-08-06,-2.96, -1.04, 8.32, 2.19, 1.54, 7.05, repro,
2008-08-07,-2.36, -0.43, 15.84, 2.23, 1.61, 7.24, repro,
2008-08-08,-0.91, -0.46, 7.03, 2.26, 1.63, 7.34, repro,
2008-08-09,-3.48, -0.98, 7.86, 2.20, 1.56, 7.16, repro,
2008-08-10,-2.87, -1.81, 7.27, 2.21, 1.56, 7.18, repro,
2008-08-11,-2.47, -1.97, 5.16, 2.20, 1.57, 7.18, repro,
2008-08-12,-3.14, -1.15, 11.13, 2.20, 1.56, 7.12, repro,
2008-08-13,-2.74, -2.03, 13.97, 2.19, 1.56, 7.11, repro,
2008-08-14,-2.38, -1.69, 4.00, 2.21, 1.56, 7.17, repro,
2008-08-15,-2.21, -1.51, 4.25, 2.21, 1.57, 7.22, repro,
2008-08-16,-2.38, -1.31, 6.50, 2.23, 1.57, 7.26, repro,
2008-08-17,-3.04, -1.25, 13.04, 2.20, 1.56, 7.14, repro,
2008-08-18,-4.23, -1.97, 14.75, 2.38, 1.74, 7.93, repro,
2008-08-19,-3.56, -3.77, 15.64, 2.21, 1.57, 7.17, repro,
2008-08-20,-2.67, -1.37, 15.38, 2.20, 1.56, 7.11, repro,
2008-08-21,-2.76, -2.28, 12.99, 2.23, 1.57, 7.22, repro,
2008-08-22,-1.62, -2.46, 9.55, 2.20, 1.57, 7.15, repro,
2008-08-23,-1.76, -2.04, 9.09, 2.21, 1.56, 7.14, repro,
2008-08-24,-2.12, -2.69, 6.48, 2.21, 1.59, 7.22, repro,
2008-08-25,-2.57, -1.53, 12.10, 2.20, 1.56, 7.11, repro,
2008-08-26,-3.11, -1.72, 11.50, 2.22, 1.56, 7.15, repro,
2008-08-27,-2.52, -1.88, 12.46, 2.23, 1.59, 7.25, repro,
2008-08-28,-1.98, -1.85, 12.92, 2.37, 1.67, 7.57, repro,
2008-08-29,-2.08, -1.84, 8.64, 2.22, 1.59, 7.21, repro,
2008-08-30,-2.83, -2.15, 11.46, 2.22, 1.59, 7.21, repro,
2008-08-31,-2.78, -2.45, 15.34, 2.23, 1.59, 7.26, repro,
2008-09-01,-1.51, -2.65, 4.42, 2.24, 1.58, 7.22, repro,
2008-09-02,-2.15, -1.80, 1.17, 2.23, 1.60, 7.26, repro,
2008-09-03,-1.36, -1.46, 4.51, 2.23, 1.59, 7.24, repro,
2008-09-04,-1.20, -2.05, 7.78, 2.35, 1.69, 7.71, repro,
2008-09-05,-3.28, -1.80, 5.44, 2.28, 1.62, 7.33, repro,